I4GOS-3 Weather Reports


Display with metric or nautical units.
time (UTC)temp
F
wind
direction
speed
MPH
gust
MPH
rain 1hr
in
rain 24hr
in
rain mn
in
humidity
%
barometer
mb
20260502170435 70 61 0.0 0.0 0.00 0.00 0.00 33 1021.3
20260502163433 70 61 3.0 0.0 0.00 0.00 0.00 33 1021.6
20260502162932 69 58 0.0 0.0 0.00 0.00 0.00 33 1021.7
20260502162430 70 50 0.0 0.0 0.00 0.00 0.00 33 1021.7
20260502161929 70 64 0.0 0.0 0.00 0.00 0.00 33 1021.8
20260502161429 70 74 3.0 0.0 0.00 0.00 0.00 33 1021.8
20260502160929 70 42 0.0 0.0 0.00 0.00 0.00 33 1021.8
20260502160503 70 54 0.0 0.0 0.00 0.00 0.00 33 1021.9
20260502160428 70 54 0.0 0.0 0.00 0.00 0.00 33 1021.9
20260502151922 70 49 4.0 0.0 0.00 0.00 0.00 32 1022.2
20260502151452 70 21 1.0 0.0 0.00 0.00 0.00 32 1022.4
20260502151421 70 21 1.0 0.0 0.00 0.00 0.00 32 1022.4
20260502150921 69 13 3.0 0.0 0.00 0.00 0.00 32 1022.4
20260502150420 70 30 5.0 0.0 0.00 0.00 0.00 32 1022.5
20260502130414 69 28 3.0 0.0 0.00 0.00 0.00 33 1023.9
20260502123413 71 23 0.0 0.0 0.00 0.00 0.00 33 1024.1
20260502122912 71 4 0.0 0.0 0.00 0.00 0.00 33 1024.1
20260502122413 71 359 0.0 0.0 0.00 0.00 0.00 32 1024.3
20260502121912 71 359 0.0 0.0 0.00 0.00 0.00 32 1024.3
20260502121412 71 301 0.0 0.0 0.00 0.00 0.00 32 1024.4
20260502120911 71 335 3.0 0.0 0.00 0.00 0.00 32 1024.4
20260502120411 71 319 0.0 0.0 0.00 0.00 0.00 31 1024.6
20260502115910 70 31 0.0 0.0 0.00 0.00 0.00 34 1024.6
20260502115442 69 23 0.0 0.0 0.00 0.00 0.00 37 1024.7
20260502115408 69 23 0.0 0.0 0.00 0.00 0.00 37 1024.7
20260502114908 70 354 4.0 0.0 0.00 0.00 0.00 36 1024.7
20260502114408 69 336 0.0 0.0 0.00 0.00 0.00 38 1024.8
20260502113904 68 343 0.0 0.0 0.00 0.00 0.00 35 1024.8
20260502113404 68 10 0.0 0.0 0.00 0.00 0.00 38 1024.8
20260502113133 68 349 0.0 0.0 0.00 0.00 0.00 37 1024.9
20260502112904 68 349 0.0 0.0 0.00 0.00 0.00 37 1024.9
20260502112404 69 33 7.0 0.0 0.00 0.00 0.00 36 1024.9
20260502111900 69 316 0.0 0.0 0.00 0.00 0.00 37 1024.9
20260502111400 69 335 0.0 0.0 0.00 0.00 0.00 39 1025.1
20260502110859 69 354 0.0 0.0 0.00 0.00 0.00 39 1025.1
20260502110502 69 339 0.0 0.0 0.00 0.00 0.00 38 1025.1
20260502110358 69 339 0.0 0.0 0.00 0.00 0.00 38 1025.1
20260502105856 69 359 0.0 0.0 0.00 0.00 0.00 37 1025.2
20260502105329 69 8 0.0 0.0 0.00 0.00 0.00 37 1025.3
20260502104913 69 35 7.0 0.0 0.00 0.00 0.00 36 1025.3
20260502104829 69 35 7.0 0.0 0.00 0.00 0.00 36 1025.3
20260502104329 69 359 0.0 0.0 0.00 0.00 0.00 37 1025.3
20260502103828 68 4 5.0 0.0 0.00 0.00 0.00 35 1025.4
20260502103402 68 354 3.0 0.0 0.00 0.00 0.00 34 1025.4
20260502103328 68 354 3.0 0.0 0.00 0.00 0.00 34 1025.4
20260502102828 69 4 0.0 0.0 0.00 0.00 0.00 34 1025.5
20260502102328 68 344 0.0 0.0 0.00 0.00 0.00 34 1025.5
20260502101827 68 349 7.0 0.0 0.00 0.00 0.00 34 1025.6
20260502101327 68 21 0.0 0.0 0.00 0.00 0.00 33 1025.6
20260502100827 68 45 0.0 0.0 0.00 0.00 0.00 33 1025.7
20260502100327 69 305 1.0 0.0 0.00 0.00 0.00 33 1025.7
20260502091323 69 272 0.0 0.0 0.00 0.00 0.00 31 1025.9
20260502090817 69 308 0.0 0.0 0.00 0.00 0.00 33 1025.9
20260502090405 68 293 0.0 0.0 0.00 0.00 0.00 34 1025.9
20260502090317 68 293 0.0 0.0 0.00 0.00 0.00 34 1025.9
20260502071310 62 249 0.0 0.0 0.00 0.00 0.00 46 1026.3
20260502070810 62 240 0.0 0.0 0.00 0.00 0.00 46 1026.3
20260502070309 61 244 0.0 0.0 0.00 0.00 0.00 46 1026.3
20260502065809 61 204 0.0 0.0 0.00 0.00 0.00 46 1026.3
20260502065309 61 254 0.0 0.0 0.00 0.00 0.00 47 1026.3
20260502064809 60 254 0.0 0.0 0.00 0.00 0.00 48 1026.3
20260502064309 60 224 0.0 0.0 0.00 0.00 0.00 48 1026.3
20260502063808 60 228 0.0 0.0 0.00 0.00 0.00 50 1026.4
20260502063308 59 243 0.0 0.0 0.00 0.00 0.00 50 1026.3
20260502062808 58 217 0.0 0.0 0.00 0.00 0.00 51 1026.3
20260502062308 58 243 0.0 0.0 0.00 0.00 0.00 53 1026.3
20260502061807 57 243 0.0 0.0 0.00 0.00 0.00 54 1026.3
20260502061307 57 245 0.0 0.0 0.00 0.00 0.00 54 1026.3
20260502060807 56 216 0.0 0.0 0.00 0.00 0.00 55 1026.3
20260502060307 55 220 0.0 0.0 0.00 0.00 0.00 56 1026.3
20260502055806 55 219 0.0 0.0 0.00 0.00 0.00 57 1026.3
20260502055306 54 214 0.0 0.0 0.00 0.00 0.00 57 1026.3
20260502054915 53 221 0.0 0.0 0.00 0.00 0.00 58 1026.3
20260502054806 53 221 0.0 0.0 0.00 0.00 0.00 58 1026.3
20260502054306 53 220 0.0 0.0 0.00 0.00 0.00 59 1026.4
20260502053806 52 228 0.0 0.0 0.00 0.00 0.00 59 1026.4
20260502053303 52 226 0.0 0.0 0.00 0.00 0.00 60 1026.4
20260502052802 51 235 0.0 0.0 0.00 0.00 0.00 60 1026.4
20260502052305 51 231 0.0 0.0 0.00 0.00 0.00 61 1026.4
20260502051800 50 227 0.0 0.0 0.00 0.00 0.00 60 1026.4
20260502051259 50 224 0.0 0.0 0.00 0.00 0.00 61 1026.4
20260502050759 50 223 0.0 0.0 0.00 0.00 0.00 61 1026.4
20260502050259 49 246 0.0 0.0 0.00 0.00 0.00 61 1026.3
20260502045759 49 231 0.0 0.0 0.00 0.00 0.00 61 1026.3
20260502045257 49 226 0.0 0.0 0.00 0.00 0.00 61 1026.3
20260502044753 49 225 0.0 0.0 0.00 0.00 0.00 61 1026.2
20260502044251 49 223 0.0 0.0 0.00 0.00 0.00 61 1026.2
20260502043737 49 224 0.0 0.0 0.00 0.00 0.00 60 1026.2
20260502043237 49 228 0.0 0.0 0.00 0.00 0.00 60 1026.1
20260502042737 49 228 0.0 0.0 0.00 0.00 0.00 60 1026.0
20260502042237 49 231 0.0 0.0 0.00 0.00 0.00 60 1026.0
20260502041737 49 231 0.0 0.0 0.00 0.00 0.00 60 1026.1
20260502041232 49 228 0.0 0.0 0.00 0.00 0.00 59 1026.0
20260502040732 49 220 0.0 0.0 0.00 0.00 0.00 59 1026.1
20260502040232 49 220 0.0 0.0 0.00 0.00 0.00 59 1026.0
20260502035732 49 222 0.0 0.0 0.00 0.00 0.00 59 1026.0
20260502035231 49 222 0.0 0.0 0.00 0.00 0.00 59 1026.1
20260502034731 49 218 0.0 0.0 0.00 0.00 0.00 59 1026.0
20260502034231 49 217 0.0 0.0 0.00 0.00 0.00 58 1026.0
20260502033731 49 215 0.0 0.0 0.00 0.00 0.00 58 1025.9
20260502033231 49 222 0.0 0.0 0.00 0.00 0.00 58 1025.9
20260502032230 49 216 0.0 0.0 0.00 0.00 0.00 58 1025.9
20260502031730 49 216 0.0 0.0 0.00 0.00 0.00 58 1025.9
20260502031230 49 226 0.0 0.0 0.00 0.00 0.00 58 1025.9
20260502030729 49 224 0.0 0.0 0.00 0.00 0.00 58 1025.9
20260502030229 49 224 0.0 0.0 0.00 0.00 0.00 57 1025.9
20260502025729 49 212 0.0 0.0 0.00 0.00 0.00 58 1026.0
20260502025229 50 218 0.0 0.0 0.00 0.00 0.00 57 1026.0
20260502024728 50 226 0.0 0.0 0.00 0.00 0.00 57 1026.0
20260502024228 50 229 0.0 0.0 0.00 0.00 0.00 57 1025.9
20260502023728 50 214 0.0 0.0 0.00 0.00 0.00 57 1026.0
20260502023228 50 218 0.0 0.0 0.00 0.00 0.00 57 1026.0
20260502022728 50 216 0.0 0.0 0.00 0.00 0.00 57 1026.0
20260502022227 50 226 0.0 0.0 0.00 0.00 0.00 57 1026.0
20260502021727 50 224 0.0 0.0 0.00 0.00 0.00 57 1026.0
20260502021227 50 217 0.0 0.0 0.00 0.00 0.00 57 1026.0
20260502020727 50 211 0.0 0.0 0.00 0.00 0.00 57 1026.1
20260502020226 50 211 0.0 0.0 0.00 0.00 0.00 57 1026.0
20260502015726 50 221 0.0 0.0 0.00 0.00 0.00 57 1026.0
20260502015226 50 222 0.0 0.0 0.00 0.00 0.00 57 1026.0
20260502014726 50 221 0.0 0.0 0.00 0.00 0.00 57 1026.0
20260502014225 50 218 0.0 0.0 0.00 0.00 0.00 57 1026.0
20260502013725 50 210 0.0 0.0 0.00 0.00 0.00 58 1026.0
20260502013225 50 229 0.0 0.0 0.00 0.00 0.00 58 1026.0
20260502012725 49 229 0.0 0.0 0.00 0.00 0.00 58 1026.0
20260502012225 49 222 0.0 0.0 0.00 0.00 0.00 59 1026.0
20260502011724 49 217 0.0 0.0 0.00 0.00 0.00 59 1026.1
20260502011224 49 222 0.0 0.0 0.00 0.00 0.00 59 1026.1
20260502010724 49 220 0.0 0.0 0.00 0.00 0.00 59 1026.2
20260502010224 49 224 0.0 0.0 0.00 0.00 0.00 60 1026.2
20260502005723 49 230 0.0 0.0 0.00 0.00 0.00 60 1026.3
20260502005223 49 232 0.0 0.0 0.00 0.00 0.00 60 1026.3
20260502004219 49 224 0.0 0.0 0.00 0.00 0.00 60 1026.3
20260502003719 49 222 0.0 0.0 0.00 0.00 0.00 60 1026.3
20260502003219 49 219 0.0 0.0 0.00 0.00 0.00 60 1026.5
20260502002718 49 221 0.0 0.0 0.00 0.00 0.00 59 1026.5
20260502002218 50 220 0.0 0.0 0.00 0.00 0.00 59 1026.6
20260502001718 50 220 0.0 0.0 0.00 0.00 0.00 59 1026.5
20260502001218 50 219 0.0 0.0 0.00 0.00 0.00 59 1026.6
20260502000718 50 219 0.0 0.0 0.00 0.00 0.00 59 1026.6
20260502000218 50 220 0.0 0.0 0.00 0.00 0.00 59 1026.6
20260501235717 50 216 0.0 0.0 0.00 0.00 0.00 58 1026.7
20260501235217 50 216 0.0 0.0 0.00 0.00 0.00 58 1026.7
20260501234717 50 214 0.0 0.0 0.00 0.00 0.00 58 1026.7
20260501234216 50 216 0.0 0.0 0.00 0.00 0.00 58 1026.7
20260501233716 50 218 0.0 0.0 0.00 0.00 0.00 58 1026.7
20260501233216 50 218 0.0 0.0 0.00 0.00 0.00 58 1026.7
20260501232716 50 218 0.0 0.0 0.00 0.00 0.00 58 1026.7
20260501232215 51 218 0.0 0.0 0.00 0.00 0.00 58 1026.7
20260501231715 51 220 0.0 0.0 0.00 0.00 0.00 57 1026.7
20260501231215 51 218 0.0 0.0 0.00 0.00 0.00 57 1026.7
20260501230715 51 220 0.0 0.0 0.00 0.00 0.00 58 1026.7
20260501230214 51 219 0.0 0.0 0.00 0.00 0.00 58 1026.6
20260501225714 50 220 0.0 0.0 0.00 0.00 0.00 58 1026.6
20260501225214 50 220 0.0 0.0 0.00 0.00 0.00 58 1026.6
20260501224714 50 224 0.0 0.0 0.00 0.00 0.00 59 1026.7
20260501224213 50 228 0.0 0.0 0.00 0.00 0.00 59 1026.7
20260501223713 50 235 0.0 0.0 0.00 0.00 0.00 58 1026.7
20260501223213 50 226 0.0 0.0 0.00 0.00 0.00 58 1026.6
20260501222713 51 226 0.0 0.0 0.00 0.00 0.00 58 1026.5
20260501222213 50 223 0.0 0.0 0.00 0.00 0.00 59 1026.5
20260501221712 50 224 0.0 0.0 0.00 0.00 0.00 59 1026.5
20260501221212 50 224 0.0 0.0 0.00 0.00 0.00 59 1026.5
20260501220712 50 222 0.0 0.0 0.00 0.00 0.00 60 1026.4
20260501220212 50 228 0.0 0.0 0.00 0.00 0.00 59 1026.4
20260501215711 51 220 0.0 0.0 0.00 0.00 0.00 59 1026.4
20260501215210 51 219 0.0 0.0 0.00 0.00 0.00 59 1026.4
20260501214709 51 225 0.0 0.0 0.00 0.00 0.00 59 1026.3
20260501214208 51 225 0.0 0.0 0.00 0.00 0.00 58 1026.3
20260501213708 51 221 0.0 0.0 0.00 0.00 0.00 58 1026.3
20260501213210 51 221 0.0 0.0 0.00 0.00 0.00 58 1026.1
20260501212708 51 224 0.0 0.0 0.00 0.00 0.00 58 1026.2
20260501212208 51 224 0.0 0.0 0.00 0.00 0.00 58 1026.1
20260501211707 52 225 0.0 0.0 0.00 0.00 0.00 58 1026.2
20260501211207 52 226 0.0 0.0 0.00 0.00 0.00 58 1026.2
20260501210707 52 225 0.0 0.0 0.00 0.00 0.00 57 1026.2
20260501210207 52 225 0.0 0.0 0.00 0.00 0.00 57 1026.1
20260501205706 52 226 0.0 0.0 0.00 0.00 0.00 57 1026.1
20260501205206 52 226 0.0 0.0 0.00 0.00 0.00 57 1026.1
20260501204705 53 228 0.0 0.0 0.00 0.00 0.00 57 1026.1
20260501204204 53 227 0.0 0.0 0.00 0.00 0.00 56 1026.1
20260501203701 53 227 0.0 0.0 0.00 0.00 0.00 56 1026.1
20260501203200 53 226 0.0 0.0 0.00 0.00 0.00 55 1026.0
20260501202656 54 226 0.0 0.0 0.00 0.00 0.00 55 1026.0
20260501202156 54 226 0.0 0.0 0.00 0.00 0.00 54 1025.9
20260501201655 54 227 0.0 0.0 0.00 0.00 0.00 53 1025.9
20260501201144 55 228 0.0 0.0 0.00 0.00 0.00 52 1025.9
20260501200641 56 229 0.0 0.0 0.00 0.00 0.00 50 1025.9
20260501200140 56 229 0.0 0.0 0.00 0.00 0.00 49 1025.9
20260501195641 56 229 0.0 0.0 0.00 0.00 0.00 49 1025.8
20260501195140 57 229 0.0 0.0 0.00 0.00 0.00 49 1025.8
20260501194640 57 229 0.0 0.0 0.00 0.00 0.00 49 1025.8
20260501194139 58 229 0.0 0.0 0.00 0.00 0.00 47 1025.7
20260501193639 58 229 0.0 0.0 0.00 0.00 0.00 44 1025.6
20260501193139 58 229 0.0 0.0 0.00 0.00 0.00 44 1025.6
20260501192639 58 229 0.0 0.0 0.00 0.00 0.00 43 1025.6
20260501192138 58 229 0.0 0.0 0.00 0.00 0.00 44 1025.6
20260501191638 58 229 0.0 0.0 0.00 0.00 0.00 43 1025.6
20260501191138 59 229 0.0 0.0 0.00 0.00 0.00 43 1025.5
20260501190638 59 229 0.0 0.0 0.00 0.00 0.00 43 1025.5
20260501190138 59 228 0.0 0.0 0.00 0.00 0.00 42 1025.6
20260501185637 60 231 0.0 0.0 0.00 0.00 0.00 42 1025.5
20260501185137 60 231 0.0 0.0 0.00 0.00 0.00 41 1025.6
20260501184637 60 231 0.0 0.0 0.00 0.00 0.00 39 1025.5
20260501184137 60 231 0.0 0.0 0.00 0.00 0.00 39 1025.4
20260501183637 61 231 0.0 0.0 0.00 0.00 0.00 37 1025.4
20260501183136 61 231 0.0 0.0 0.00 0.00 0.00 37 1025.4
20260501182636 61 231 0.0 0.0 0.00 0.00 0.00 35 1025.3
20260501182136 62 231 0.0 0.0 0.00 0.00 0.00 35 1025.3
20260501181635 62 231 0.0 0.0 0.00 0.00 0.00 34 1025.3
20260501181135 62 231 0.0 0.0 0.00 0.00 0.00 34 1025.2
20260501180635 63 231 0.0 0.0 0.00 0.00 0.00 33 1025.3
20260501180135 63 231 0.0 0.0 0.00 0.00 0.00 33 1025.3
20260501175635 63 234 0.0 0.0 0.00 0.00 0.00 33 1025.3